星链-4210 (STARLINK-4210 )

导读 | 星芒AI

STARLINK-4210 是 SpaceX Starlink 卫星互联网项目中的一颗低轨道卫星,属于第 42 批部署的 Starlink 卫星之一。该卫星由 SpaceX 制造并发射,旨在为全球用户提供高速、低延迟的宽带互联网服务。它运行在约 550 公里的轨道高度,采用先进的通信技术,支持全球范围内的网络连接,尤其服务于偏远和网络基础设施薄弱的地区。STARLINK-4210 的部署有助于提升 Starlink 网络的覆盖密度和稳定性。

基本信息
目录编号:
52874
目录名称:
STARLINK-4210
国际标识:
2022-062AW
轨道中心:
EARTH
卫星名称:
星链-4210
卫星全名:
星链-4210 (STARLINK-4210 )
卫星状态:
已陨落 最后检测时间 2025-10-17
发射日期:
2022-06-17 UTC
国别 :
美国 (US)
星等 :
--
轨道信息
数据来源 国际轨道数据
星历时间: 2025-10-17T08:59:10+0800
轨道信息已过期19天
半长轴: 6526.963km
偏心率: 0.0006236
轨道倾角: 53.198°
近地点辐角 232.264°
升交点赤经 259.160°
平近点角 127.785°
近地点: 144.757km
远地点: 152.899km
周期: 87.463分钟
每日圈数: 16.464027
详细信息
固有亮度:
5
最大亮度:
2.5
卫星平台:
Starlink v1.5
覆盖范围:
全球
运营商:
太空探索技术公司
运营商所在国:
美国
制造商(研发单位):
太空探索技术公司
制造商所在国:
美国
使用方式:
暂无
卫星简介
星链(Starlink)计划是由太空探索技术公司(SpaceX)提出的一个巨型低轨卫星互联网星座项目,计划在2019年至2024年间在太空搭建由约1.2万颗卫星组成的“星链”网络,其中1584颗将部署在地球上空550千米处的近地轨道,并从2020年开始工作。该卫星仍在工作。